Location: Unspecified
(0.0000°N, 0.0000°E)
Time: 07:55:14
(UTC+00:00)

DMSP 5D-2 F-14 - Pass Details

Date: 03 June 2023
Orbit: 831 x 845 km, 98.9° (Epoch: 28 September)

Event Time Altitude Azimuth Distance (km) Brightness Sun altitude
Exits shadow 18:57:11 10° 73° (ENE) 2,406 6.6 -13.6°
Drops below altitude 10° 18:57:47 10° 67° (ENE) 2,432 6.7 -13.8°
Sets 19:02:34 0° 28° (NNE) 3,360 7.8 -14.9°
